Time,TemperatureF,DewpointF,PressureIn,WindDirection,WindDirectionDegrees,WindSpeedMPH,WindSpeedGustMPH,Humidity,HourlyPrecipIn,Conditions,Clouds,dailyrainin,SoftwareType,DateUTC
2013-02-14 00:14:00,30.0,27.0,29.83,SE,124,0.0,-999.0,89,-99.99,,,0.00,weatherlink.com 1.10,2013-02-14 05:14:00,
2013-02-14 00:29:00,29.7,27.0,29.84,SSE,162,2.0,-999.0,90,-99.99,,,0.00,weatherlink.com 1.10,2013-02-14 05:29:00,
2013-02-14 00:44:00,29.8,27.0,29.83,SSE,162,2.0,-999.0,90,-99.99,,,0.00,weatherlink.com 1.10,2013-02-14 05:44:00,
2013-02-14 00:59:00,29.6,27.0,29.83,SSE,163,2.0,-999.0,90,-99.99,,,0.00,weatherlink.com 1.10,2013-02-14 05:59:00,
2013-02-14 01:14:00,29.9,28.0,29.83,SE,133,3.0,-999.0,91,-99.99,,,0.00,weatherlink.com 1.10,2013-02-14 06:14:00,
2013-02-14 01:29:00,30.6,28.0,29.83,South,173,5.0,-999.0,90,-99.99,,,0.00,weatherlink.com 1.10,2013-02-14 06:29:00,
2013-02-14 01:44:00,30.9,28.0,29.83,SSE,153,2.0,-999.0,90,-99.99,,,0.00,weatherlink.com 1.10,2013-02-14 06:44:00,
2013-02-14 01:59:00,31.2,28.0,29.83,SSW,200,2.0,-999.0,89,-99.99,,,0.00,weatherlink.com 1.10,2013-02-14 06:59:00,
2013-02-14 02:14:00,31.2,28.0,29.83,South,174,2.0,-999.0,89,-99.99,,,0.00,weatherlink.com 1.10,2013-02-14 07:14:00,
2013-02-14 02:29:00,31.2,28.0,29.82,SSW,205,1.0,-999.0,89,-99.99,,,0.00,weatherlink.com 1.10,2013-02-14 07:29:00,
2013-02-14 02:44:00,31.6,29.0,29.82,South,187,2.0,-999.0,89,-99.99,,,0.00,weatherlink.com 1.10,2013-02-14 07:44:00,
2013-02-14 02:59:00,31.6,29.0,29.82,SSW,207,3.0,-999.0,89,-99.99,,,0.00,weatherlink.com 1.10,2013-02-14 07:59:00,
2013-02-14 03:14:00,31.5,29.0,29.82,SSW,210,2.0,-999.0,89,-99.99,,,0.00,weatherlink.com 1.10,2013-02-14 08:14:00,
2013-02-14 03:29:00,31.6,29.0,29.82,SSW,206,4.0,-999.0,89,-99.99,,,0.00,weatherlink.com 1.10,2013-02-14 08:29:00,
2013-02-14 03:44:00,32.0,29.0,29.82,SSE,156,6.0,-999.0,88,-99.99,,,0.00,weatherlink.com 1.10,2013-02-14 08:44:00,
2013-02-14 03:59:00,32.3,29.0,29.82,SSW,197,5.0,-999.0,88,-99.99,,,0.00,weatherlink.com 1.10,2013-02-14 08:59:00,
2013-02-14 04:14:00,32.5,29.0,29.82,SW,236,4.0,-999.0,88,-99.99,,,0.00,weatherlink.com 1.10,2013-02-14 09:14:00,
2013-02-14 04:29:00,32.9,30.0,29.82,SW,219,5.0,-999.0,87,-99.99,,,0.00,weatherlink.com 1.10,2013-02-14 09:29:00,
2013-02-14 04:44:00,33.1,30.0,29.82,South,170,1.0,-999.0,87,-99.99,,,0.00,weatherlink.com 1.10,2013-02-14 09:44:00,
2013-02-14 04:59:00,32.5,29.0,29.82,South,181,2.0,-999.0,86,-99.99,,,0.00,weatherlink.com 1.10,2013-02-14 09:59:00,
2013-02-14 05:14:00,-999.0,-99.9,29.82,North,-999,-999.0,-999.0,-999,-99.99,,,0.00,weatherlink.com 1.10,2013-02-14 10:14:00,
2013-02-14 05:29:00,-999.0,-99.9,29.82,North,-999,-999.0,-999.0,-999,-99.99,,,0.00,weatherlink.com 1.10,2013-02-14 10:29:00,
2013-02-14 05:44:00,-999.0,-99.9,29.82,North,-999,-999.0,-999.0,-999,-99.99,,,0.00,weatherlink.com 1.10,2013-02-14 10:44:00,
2013-02-14 05:59:00,-999.0,-99.9,29.81,North,-999,-999.0,-999.0,-999,-99.99,,,0.00,weatherlink.com 1.10,2013-02-14 10:59:00,
2013-02-14 06:14:00,-999.0,-99.9,29.81,North,-999,-999.0,-999.0,-999,-99.99,,,0.00,weatherlink.com 1.10,2013-02-14 11:14:00,
2013-02-14 06:29:00,-999.0,-99.9,29.81,North,-999,-999.0,-999.0,-999,-99.99,,,0.00,weatherlink.com 1.10,2013-02-14 11:29:00,
2013-02-14 06:44:00,-999.0,-99.9,29.81,North,-999,-999.0,-999.0,-999,-99.99,,,0.00,weatherlink.com 1.10,2013-02-14 11:44:00,
2013-02-14 06:59:00,-999.0,-99.9,29.81,North,-999,-999.0,-999.0,-999,-99.99,,,0.00,weatherlink.com 1.10,2013-02-14 11:59:00,
2013-02-14 07:14:00,-999.0,-99.9,29.82,North,-999,-999.0,-999.0,-999,-99.99,,,0.00,weatherlink.com 1.10,2013-02-14 12:14:00,
2013-02-14 07:29:00,-999.0,-99.9,29.82,North,-999,-999.0,-999.0,-999,-99.99,,,0.00,weatherlink.com 1.10,2013-02-14 12:29:00,
2013-02-14 07:44:00,-999.0,-99.9,29.82,North,-999,-999.0,-999.0,-999,-99.99,,,0.00,weatherlink.com 1.10,2013-02-14 12:44:00,
2013-02-14 07:59:00,-999.0,-99.9,29.82,North,-999,-999.0,-999.0,-999,-99.99,,,0.00,weatherlink.com 1.10,2013-02-14 12:59:00,
2013-02-14 08:14:00,34.4,32.0,29.82,SSW,199,3.0,-999.0,90,-99.99,,,0.00,weatherlink.com 1.10,2013-02-14 13:14:00,
2013-02-14 08:29:00,34.6,32.0,29.83,SW,214,3.0,-999.0,90,-99.99,,,0.00,weatherlink.com 1.10,2013-02-14 13:29:00,
2013-02-14 08:44:00,34.9,32.0,29.83,SSW,210,5.0,-999.0,90,-99.99,,,0.00,weatherlink.com 1.10,2013-02-14 13:44:00,
2013-02-14 08:59:00,35.2,33.0,29.83,SW,234,4.0,-999.0,90,-99.99,,,0.00,weatherlink.com 1.10,2013-02-14 13:59:00,
2013-02-14 09:14:00,35.5,33.0,29.83,South,174,5.0,-999.0,90,-99.99,,,0.00,weatherlink.com 1.10,2013-02-14 14:14:00,
2013-02-14 09:29:00,35.8,33.0,29.83,SW,227,8.0,-999.0,90,-99.99,,,0.00,weatherlink.com 1.10,2013-02-14 14:29:00,
2013-02-14 09:44:00,36.2,34.0,29.83,SSW,211,3.0,-999.0,90,-99.99,,,0.00,weatherlink.com 1.10,2013-02-14 14:44:00,
2013-02-14 09:59:00,36.8,34.0,29.82,SSW,198,5.0,-999.0,89,-99.99,,,0.00,weatherlink.com 1.10,2013-02-14 14:59:00,
2013-02-14 10:14:00,37.1,34.0,29.82,WSW,257,4.0,-999.0,89,-99.99,,,0.00,weatherlink.com 1.10,2013-02-14 15:14:00,
2013-02-14 10:29:00,37.3,34.0,29.81,WSW,240,6.0,-999.0,89,-99.99,,,0.00,weatherlink.com 1.10,2013-02-14 15:29:00,
2013-02-14 10:44:00,37.7,35.0,29.81,SSE,158,4.0,-999.0,89,-99.99,,,0.00,weatherlink.com 1.10,2013-02-14 15:44:00,
2013-02-14 10:59:00,38.0,35.0,29.80,East,98,7.0,-999.0,88,-99.99,,,0.00,weatherlink.com 1.10,2013-02-14 15:59:00,
2013-02-14 11:14:00,37.9,35.0,29.80,SSW,199,6.0,-999.0,89,-99.99,,,0.00,weatherlink.com 1.10,2013-02-14 16:14:00,
2013-02-14 11:29:00,37.9,35.0,29.79,SSW,196,3.0,-999.0,90,-99.99,,,0.00,weatherlink.com 1.10,2013-02-14 16:29:00,
2013-02-14 11:44:00,38.3,36.0,29.78,SSE,163,3.0,-999.0,90,-99.99,,,0.00,weatherlink.com 1.10,2013-02-14 16:44:00,
2013-02-14 11:59:00,39.5,36.0,29.79,SSE,158,3.0,-999.0,88,-99.99,,,0.00,weatherlink.com 1.10,2013-02-14 16:59:00,
2013-02-14 12:14:00,40.6,37.0,29.77,SSE,159,7.0,-999.0,85,-99.99,,,0.00,weatherlink.com 1.10,2013-02-14 17:14:00,
2013-02-14 12:29:00,42.2,37.0,29.77,SW,225,10.0,-999.0,82,-99.99,,,0.00,weatherlink.com 1.10,2013-02-14 17:29:00,
2013-02-14 12:44:00,42.4,37.0,29.77,SSW,193,6.0,-999.0,81,-99.99,,,0.00,weatherlink.com 1.10,2013-02-14 17:44:00,
2013-02-14 12:59:00,42.7,37.0,29.76,South,176,6.0,-999.0,80,-99.99,,,0.00,weatherlink.com 1.10,2013-02-14 17:59:00,
2013-02-14 13:14:00,42.5,37.0,29.76,SSW,211,6.0,-999.0,80,-99.99,,,0.00,weatherlink.com 1.10,2013-02-14 18:14:00,
2013-02-14 13:29:00,42.2,36.0,29.76,SSW,193,4.0,-999.0,80,-99.99,,,0.00,weatherlink.com 1.10,2013-02-14 18:29:00,
2013-02-14 13:44:00,42.2,36.0,29.75,South,172,7.0,-999.0,80,-99.99,,,0.00,weatherlink.com 1.10,2013-02-14 18:44:00,
2013-02-14 13:59:00,41.4,37.0,29.75,SSW,193,9.0,-999.0,84,-99.99,,,0.00,weatherlink.com 1.10,2013-02-14 18:59:00,
2013-02-14 14:14:00,40.8,37.0,29.75,NE,53,5.0,-999.0,86,-99.99,,,0.00,weatherlink.com 1.10,2013-02-14 19:14:00,
2013-02-14 14:29:00,40.7,37.0,29.75,SSE,156,6.0,-999.0,86,-99.99,,,0.00,weatherlink.com 1.10,2013-02-14 19:29:00,
2013-02-14 14:44:00,40.7,37.0,29.74,SSW,211,4.0,-999.0,87,-99.99,,,0.00,weatherlink.com 1.10,2013-02-14 19:44:00,
2013-02-14 14:59:00,40.8,37.0,29.75,SSW,213,5.0,-999.0,87,-99.99,,,0.00,weatherlink.com 1.10,2013-02-14 19:59:00,
2013-02-14 15:14:00,40.9,37.0,29.74,South,173,4.0,-999.0,87,-99.99,,,0.00,weatherlink.com 1.10,2013-02-14 20:14:00,
2013-02-14 15:29:00,41.3,37.0,29.74,WSW,246,10.0,-999.0,86,-99.99,,,0.00,weatherlink.com 1.10,2013-02-14 20:29:00,
2013-02-14 15:44:00,41.4,38.0,29.75,SSE,163,4.0,-999.0,86,-99.99,,,0.00,weatherlink.com 1.10,2013-02-14 20:44:00,
2013-02-14 15:59:00,41.4,38.0,29.74,SSW,199,6.0,-999.0,86,-99.99,,,0.00,weatherlink.com 1.10,2013-02-14 20:59:00,
2013-02-14 16:14:00,41.3,37.0,29.74,West,262,2.0,-999.0,86,-99.99,,,0.00,weatherlink.com 1.10,2013-02-14 21:14:00,
2013-02-14 16:29:00,41.4,38.0,29.74,South,183,9.0,-999.0,86,-99.99,,,0.00,weatherlink.com 1.10,2013-02-14 21:29:00,
2013-02-14 16:44:00,41.4,38.0,29.74,SSW,200,8.0,-999.0,86,-99.99,,,0.00,weatherlink.com 1.10,2013-02-14 21:44:00,
2013-02-14 17:00:00,41.7,38.0,29.75,SSW,201,4.0,-999.0,86,-99.99,,,0.00,weatherlink.com 1.10,2013-02-14 22:00:00,
2013-02-14 17:14:00,42.1,38.0,29.75,SSE,165,6.0,-999.0,84,-99.99,,,0.01,weatherlink.com 1.10,2013-02-14 22:14:00,
2013-02-14 17:29:00,41.9,37.0,29.77,WNW,293,9.0,-999.0,82,-99.99,,,0.01,weatherlink.com 1.10,2013-02-14 22:29:00,
2013-02-14 17:45:00,41.5,35.0,29.77,SW,225,5.0,-999.0,78,-99.99,,,0.01,weatherlink.com 1.10,2013-02-14 22:45:00,
2013-02-14 18:00:00,40.9,35.0,29.78,WSW,248,1.0,-999.0,79,-99.99,,,0.01,weatherlink.com 1.10,2013-02-14 23:00:00,
2013-02-14 18:15:00,40.2,34.0,29.80,SE,127,2.0,-999.0,78,-99.99,,,0.01,weatherlink.com 1.10,2013-02-14 23:15:00,
2013-02-14 18:30:00,40.0,33.0,29.80,NNW,327,2.0,-999.0,77,-99.99,,,0.01,weatherlink.com 1.10,2013-02-14 23:30:00,
2013-02-14 18:45:00,39.7,33.0,29.81,WNW,292,1.0,-999.0,77,-99.99,,,0.01,weatherlink.com 1.10,2013-02-14 23:45:00,
2013-02-14 19:00:00,39.5,33.0,29.81,NW,311,6.0,-999.0,77,-99.99,,,0.01,weatherlink.com 1.10,2013-02-15 00:00:00,
2013-02-14 19:15:00,39.4,33.0,29.82,SSW,208,5.0,-999.0,77,-99.99,,,0.01,weatherlink.com 1.10,2013-02-15 00:15:00,
2013-02-14 19:30:00,39.2,33.0,29.82,WNW,293,3.0,-999.0,77,-99.99,,,0.01,weatherlink.com 1.10,2013-02-15 00:30:00,
2013-02-14 19:45:00,39.0,32.0,29.83,West,265,3.0,-999.0,77,-99.99,,,0.01,weatherlink.com 1.10,2013-02-15 00:45:00,
2013-02-14 20:00:00,38.9,33.0,29.83,West,278,5.0,-999.0,78,-99.99,,,0.01,weatherlink.com 1.10,2013-02-15 01:00:00,
2013-02-14 20:15:00,38.8,33.0,29.83,North,6,6.0,-999.0,79,-99.99,,,0.01,weatherlink.com 1.10,2013-02-15 01:15:00,
2013-02-14 20:30:00,38.7,33.0,29.84,WNW,290,3.0,-999.0,79,-99.99,,,0.01,weatherlink.com 1.10,2013-02-15 01:30:00,
2013-02-14 20:45:00,38.5,32.0,29.85,NW,311,9.0,-999.0,76,-99.99,,,0.01,weatherlink.com 1.10,2013-02-15 01:45:00,
2013-02-14 21:00:00,38.0,31.0,29.86,WSW,252,8.0,-999.0,77,-99.99,,,0.01,weatherlink.com 1.10,2013-02-15 02:00:00,
2013-02-14 21:15:00,37.9,31.0,29.87,NNW,327,4.0,-999.0,76,-99.99,,,0.01,weatherlink.com 1.10,2013-02-15 02:15:00,
2013-02-14 21:30:00,37.8,31.0,29.88,SW,214,7.0,-999.0,76,-99.99,,,0.01,weatherlink.com 1.10,2013-02-15 02:30:00,
2013-02-14 21:45:00,37.6,31.0,29.88,NW,312,2.0,-999.0,77,-99.99,,,0.01,weatherlink.com 1.10,2013-02-15 02:45:00,
2013-02-14 22:00:00,37.4,31.0,29.88,West,279,2.0,-999.0,77,-99.99,,,0.01,weatherlink.com 1.10,2013-02-15 03:00:00,
2013-02-14 22:15:00,37.2,31.0,29.88,ESE,122,5.0,-999.0,77,-99.99,,,0.01,weatherlink.com 1.10,2013-02-15 03:15:00,
2013-02-14 22:30:00,37.1,31.0,29.88,West,281,5.0,-999.0,77,-99.99,,,0.01,weatherlink.com 1.10,2013-02-15 03:30:00,
2013-02-14 22:45:00,36.8,30.0,29.88,SW,228,5.0,-999.0,77,-99.99,,,0.01,weatherlink.com 1.10,2013-02-15 03:45:00,
2013-02-14 23:00:00,36.5,30.0,29.89,WNW,291,4.0,-999.0,77,-99.99,,,0.01,weatherlink.com 1.10,2013-02-15 04:00:00,
2013-02-14 23:15:00,36.6,29.0,29.89,NNE,13,10.0,-999.0,74,-99.99,,,0.01,weatherlink.com 1.10,2013-02-15 04:15:00,
2013-02-14 23:30:00,36.6,29.0,29.90,West,269,7.0,-999.0,75,-99.99,,,0.01,weatherlink.com 1.10,2013-02-15 04:30:00,
2013-02-14 23:45:00,36.5,30.0,29.90,NW,311,5.0,-999.0,76,-99.99,,,0.01,weatherlink.com 1.10,2013-02-15 04:45:00,